Location: Oso Ridge
(35.0450°N, 108.0864°W)
Time: 19:42:11
(UTC-06:00)

Amateur Radio Satellites - All Passes

Search period start: 31 July 2014 19:12
Search period end: 01 August 2014 19:12
Location: Oso Ridge, 35.0450°N, 108.0864°W

Satellite Date Start Highest point End Downlink Frequencies (MHz)
Time Altitude Azimuth
STRAND 1 31 Jul 19:49:42 19:54:46 64° 102° (ESE) 19:59:48 ?
MaSat-1 31 Jul 19:57:44 20:00:18 17° 100° (E) 20:03:06 437.345 MHz
SO-67 31 Jul 19:59:20 20:02:41 48° 261° (W) 20:06:03 435.3500 MHz FM
SO-50 31 Jul 20:16:47 20:20:04 18° 49° (NE) 20:23:23 436.795 FM
JAS-2 31 Jul 20:24:00 20:28:55 18° 268° (W) 20:33:42 435.800 - 435.900 CW/SSB, 435.910 FM
HO-68 31 Jul 20:38:00 20:44:25 37° 66° (ENE) 20:50:49 435.675 MHz FM
UKube-1 31 Jul 20:53:38 20:56:49 20° 68° (ENE) 21:00:01 145.840 MHz, 145.915 MHz
RS-15 31 Jul 20:58:31 21:07:38 28° 41° (NE) 21:16:56 29.354 - 29.394 USB, Beacon 29.352 USB
STRAND 1 31 Jul 21:30:59 21:33:22 13° 297° (WNW) 21:35:44 ?
MaSat-1 31 Jul 21:33:22 21:37:07 35° 300° (WNW) 21:41:26 437.345 MHz
Oscar 11 31 Jul 21:34:53 21:38:32 28° 71° (ENE) 21:42:12 145.825 FM, Beacon 2401.500 USB
ISS 31 Jul 21:35:22 21:37:51 20° 129° (SE) 21:40:22 145.800 FM
SO-50 31 Jul 21:56:16 22:00:55 52° 245° (WSW) 22:05:36 436.795 FM
UOSAT-12 31 Jul 22:01:09 22:03:51 15° 46° (NE) 22:06:32 437.025 FM, 437.400 FM
FUNcube-1 31 Jul 22:05:26 22:08:42 22° 70° (ENE) 22:11:56 145.950 - 145.970 MHz USB
HO-68 31 Jul 22:25:28 22:31:59 37° 261° (W) 22:38:32 435.675 MHz FM
UKube-1 31 Jul 22:28:57 22:32:48 30° 262° (W) 22:36:40 145.840 MHz, 145.915 MHz
Sapphire 31 Jul 22:56:49 22:57:38 10° 102° (ESE) 22:58:27 437.095 MHz 1200 baud AX-25 AFSK
RS-15 31 Jul 23:10:10 23:21:17 83° 244° (WSW) 23:32:52 29.354 - 29.394 USB, Beacon 29.352 USB
ISS 31 Jul 23:11:22 23:14:24 32° 324° (NW) 23:17:28 145.800 FM
Oscar 11 31 Jul 23:11:28 23:14:41 20° 265° (W) 23:17:55 145.825 FM, Beacon 2401.500 USB
Oscar 10/S400 31 Jul 23:23:01 23:46:28 73° 171° (S) 09:12:12 145.825 - 145.975 CW/USB, Beacon 145.810 USB
PCSat 31 Jul 23:26:01 23:30:19 25° 107° (ESE) 23:34:39 145.825 MHz
UOSAT-12 31 Jul 23:39:46 23:44:27 64° 243° (WSW) 23:49:02 437.025 FM, 437.400 FM
FUNcube-1 31 Jul 23:41:20 23:44:57 26° 263° (W) 23:48:31 145.950 - 145.970 MHz USB
AO-40 01 Aug 00:03:17 06:34:09 47° 172° (S) 08:22:03 Beacon 2401.320
Sapphire 01 Aug 00:34:52 00:40:16 81° 296° (WNW) 00:45:42 437.095 MHz 1200 baud AX-25 AFSK
PCSat 01 Aug 01:08:29 01:13:29 38° 302° (WNW) 01:18:32 145.825 MHz
RS-15 01 Aug 01:25:57 01:32:00 16° 260° (W) 01:38:13 29.354 - 29.394 USB, Beacon 29.352 USB
Oscar 16 01 Aug 01:29:39 01:31:46 12° 92° (E) 01:33:54 437.025 USB, Beacon 2401.1428
Uribyol 2 01 Aug 02:15:03 02:18:12 16° 93° (E) 02:21:20 436.500 FM
AO-27 01 Aug 02:16:36 02:19:44 16° 93° (E) 02:22:51 436.795 MHz FM
Sapphire 01 Aug 02:22:53 02:24:32 11° 314° (NW) 02:26:12 437.095 MHz 1200 baud AX-25 AFSK
AO-Echo 01 Aug 02:28:50 02:32:37 22° 94° (E) 02:36:18 ?
JAS-1B 01 Aug 02:29:31 02:35:40 21° 88° (E) 02:41:09 435.800 - 435.900 CW/SSB
PANSAT 01 Aug 02:30:16 02:31:44 12° 159° (SSE) 02:33:11 not established
Oscar 19 01 Aug 02:37:21 02:42:29 63° 101° (ESE) 02:47:37 437.125 CW, 437.150 USB
Gurwin Techsat 1B 01 Aug 02:57:31 03:00:50 17° 93° (E) 03:04:08 435.225 FM
Oscar 16 01 Aug 03:06:22 03:11:29 64° 286° (WNW) 03:16:36 437.025 USB, Beacon 2401.1428
ITAMSAT 1 01 Aug 03:34:11 03:39:23 82° 284° (WNW) 03:44:32 435.822 SSB
Uribyol 2 01 Aug 03:52:56 03:57:55 50° 288° (WNW) 04:02:51 436.500 FM
AO-27 01 Aug 03:54:29 03:59:29 50° 288° (WNW) 04:04:27 436.795 MHz FM
AO-Echo 01 Aug 04:06:58 04:11:26 34° 290° (WNW) 04:15:46 ?
ISS 01 Aug 04:07:32 04:08:26 11° 24° (NNE) 04:09:20 145.800 FM
PANSAT 01 Aug 04:08:07 04:11:21 25° 171° (S) 04:14:36 not established
TMSAT-1 01 Aug 04:09:10 04:14:25 64° 101° (ESE) 04:19:39 436.925 FM
KITSAT 1 01 Aug 04:13:43 04:17:38 14° 100° (E) 04:21:34 435.175 FM
JAS-1B 01 Aug 04:18:05 04:27:08 72° 288° (WNW) 04:34:41 435.800 - 435.900 CW/SSB
Oscar 19 01 Aug 04:18:40 04:21:15 14° 296° (WNW) 04:23:51 437.125 CW, 437.150 USB
Uosat F 01 Aug 04:28:57 04:32:24 19° 94° (E) 04:35:50 435.120 FM
OPAL 01 Aug 04:33:36 04:38:32 83° 255° (WSW) 04:43:31 ?
Gurwin Techsat 1B 01 Aug 04:35:55 04:41:02 51° 287° (WNW) 04:46:08 435.225 FM
AO-7 01 Aug 05:27:19 05:35:35 65° 104° (ESE) 05:43:46 29.400 - 29.500 MHz
ISS 01 Aug 05:42:21 05:45:42 65° 41° (NE) 05:49:01 145.800 FM
PANSAT 01 Aug 05:47:44 05:51:09 30° 183° (S) 05:54:33 not established
TMSAT-1 01 Aug 05:51:01 05:53:45 14° 296° (WNW) 05:56:29 436.925 FM
MaSat-1 01 Aug 05:54:44 05:59:10 27° 58° (ENE) 06:03:22 437.345 MHz
KITSAT 1 01 Aug 06:03:46 06:11:53 88° 116° (ESE) 06:20:01 435.175 FM
Uosat F 01 Aug 06:06:37 06:11:19 41° 289° (WNW) 06:15:58 435.120 FM
JAS-1B 01 Aug 06:11:28 06:15:43 14° 309° (NW) 06:19:43 435.800 - 435.900 CW/SSB
Hamsat 01 Aug 06:14:13 06:17:02 17° 94° (E) 06:19:51 145.90 MHz
Saudisat 1A 01 Aug 06:38:44 06:42:57 46° 115° (ESE) 06:47:12 436.775 MHz
STRAND 1 01 Aug 07:02:19 07:07:24 67° 74° (ENE) 07:12:30 ?
AO-7 01 Aug 07:21:13 07:27:42 26° 301° (WNW) 07:34:10 29.400 - 29.500 MHz
SO-67 01 Aug 07:27:41 07:29:32 14° 94° (E) 07:31:21 435.3500 MHz FM
PANSAT 01 Aug 07:28:08 07:30:52 18° 196° (SSW) 07:33:36 not established
MaSat-1 01 Aug 07:31:52 07:36:29 33° 255° (WSW) 07:40:44 437.345 MHz
JAS-2 01 Aug 07:35:19 07:41:01 89° 284° (WNW) 07:46:15 435.800 - 435.900 CW/SSB, 435.910 FM
Hamsat 01 Aug 07:49:08 07:53:03 34° 287° (WNW) 07:56:58 145.90 MHz
KITSAT 1 01 Aug 08:02:30 08:08:18 21° 316° (NW) 08:14:08 435.175 FM
PCSat 01 Aug 08:18:21 08:20:23 12° 46° (NE) 08:22:24 145.825 MHz
Saudisat 1A 01 Aug 08:19:51 08:22:46 17° 311° (NW) 08:25:42 436.775 MHz
STRAND 1 01 Aug 08:45:11 08:46:59 12° 268° (W) 08:48:46 ?
SO-67 01 Aug 08:59:41 09:02:35 25° 287° (WNW) 09:05:29 435.3500 MHz FM
Sapphire 01 Aug 09:26:20 09:31:26 40° 58° (ENE) 09:36:30 437.095 MHz 1200 baud AX-25 AFSK
HO-68 01 Aug 09:55:59 10:02:55 51° 101° (E) 10:09:48 435.675 MHz FM
PCSat 01 Aug 09:59:08 10:04:36 85° 64° (ENE) 10:10:00 145.825 MHz
UKube-1 01 Aug 10:19:56 10:24:13 56° 101° (E) 10:28:28 145.840 MHz, 145.915 MHz
Oscar 11 01 Aug 11:01:00 11:05:22 90° 283° (WNW) 11:09:43 145.825 FM, Beacon 2401.500 USB
Sapphire 01 Aug 11:10:21 11:14:33 23° 254° (WSW) 11:18:45 437.095 MHz 1200 baud AX-25 AFSK
RS-15 01 Aug 11:22:16 11:29:05 19° 101° (E) 11:35:45 29.354 - 29.394 USB, Beacon 29.352 USB
FUNcube-1 01 Aug 11:32:45 11:36:57 73° 101° (ESE) 11:41:13 145.950 - 145.970 MHz USB
HO-68 01 Aug 11:44:26 11:50:12 27° 297° (WNW) 11:55:57 435.675 MHz FM
UKube-1 01 Aug 11:58:35 11:59:54 11° 295° (WNW) 12:01:13 145.840 MHz, 145.915 MHz
SO-50 01 Aug 12:08:03 12:12:28 71° 300° (WNW) 12:17:00 436.795 FM
Oscar 16 01 Aug 12:43:46 12:46:22 14° 64° (ENE) 12:48:59 437.025 USB, Beacon 2401.1428
JAS-1B 01 Aug 13:10:03 13:15:35 18° 54° (NE) 13:21:18 435.800 - 435.900 CW/SSB
ITAMSAT 1 01 Aug 13:13:28 13:15:18 12° 62° (ENE) 13:17:07 435.822 SSB
RS-15 01 Aug 13:28:40 13:39:55 90° 298° (WNW) 13:50:54 29.354 - 29.394 USB, Beacon 29.352 USB
Uribyol 2 01 Aug 13:29:58 13:33:31 19° 66° (ENE) 13:37:05 436.500 FM
AO-27 01 Aug 13:31:43 13:35:19 19° 66° (ENE) 13:38:54 436.795 MHz FM
AO-Echo 01 Aug 13:38:19 13:42:24 23° 67° (ENE) 13:46:29 ?
UOSAT-12 01 Aug 13:47:33 13:52:07 84° 118° (ESE) 13:56:48 437.025 FM, 437.400 FM
Oscar 19 01 Aug 13:51:01 13:56:04 65° 74° (ENE) 14:01:08 437.125 CW, 437.150 USB
KITSAT 1 01 Aug 14:01:27 14:07:59 26° 47° (NE) 14:14:28 435.175 FM
Gurwin Techsat 1B 01 Aug 14:15:33 14:19:20 20° 66° (ENE) 14:23:08 435.225 FM
Oscar 16 01 Aug 14:20:07 14:25:10 61° 259° (W) 14:30:14 437.025 USB, Beacon 2401.1428
AO-7 01 Aug 14:36:29 14:39:23 12° 50° (NE) 14:42:17 29.400 - 29.500 MHz
ITAMSAT 1 01 Aug 14:48:53 14:54:06 76° 257° (WSW) 14:59:19 435.822 SSB
JAS-1B 01 Aug 14:55:23 15:04:17 76° 73° (ENE) 15:14:10 435.800 - 435.900 CW/SSB
Uribyol 2 01 Aug 15:07:39 15:12:37 46° 260° (W) 15:17:36 436.500 FM
Saudisat 1A 01 Aug 15:09:26 15:12:18 17° 49° (NE) 15:15:10 436.775 MHz
AO-27 01 Aug 15:09:27 15:14:26 46° 260° (W) 15:19:27 436.795 MHz FM
AO-Echo 01 Aug 15:15:55 15:20:52 39° 262° (W) 15:25:50 ?
TMSAT-1 01 Aug 15:26:38 15:31:53 72° 75° (ENE) 15:37:11 436.925 FM
UOSAT-12 01 Aug 15:31:09 15:32:53 12° 316° (NW) 15:34:39 437.025 FM, 437.400 FM
Oscar 19 01 Aug 15:33:57 15:35:48 12° 269° (W) 15:37:38 437.125 CW, 437.150 USB
Uosat F 01 Aug 15:39:23 15:42:55 20° 66° (ENE) 15:46:28 435.120 FM
RS-15 01 Aug 15:45:09 15:53:49 26° 322° (NW) 16:02:28 29.354 - 29.394 USB, Beacon 29.352 USB
Gurwin Techsat 1B 01 Aug 15:53:54 15:58:56 44° 261° (W) 16:04:00 435.225 FM
KITSAT 1 01 Aug 15:56:00 16:04:01 70° 247° (WSW) 16:11:59 435.175 FM
AO-7 01 Aug 16:22:20 16:30:33 65° 69° (ENE) 16:38:48 29.400 - 29.500 MHz
OPAL 01 Aug 16:46:50 16:51:28 34° 100° (E) 16:56:08 ?
Saudisat 1A 01 Aug 16:47:54 16:52:07 47° 245° (WSW) 16:56:19 436.775 MHz
JAS-1B 01 Aug 16:48:46 16:55:32 24° 271° (W) 17:02:52 435.800 - 435.900 CW/SSB
TMSAT-1 01 Aug 17:10:40 17:12:15 11° 269° (W) 17:13:51 436.925 FM
Uosat F 01 Aug 17:16:36 17:21:22 42° 261° (W) 17:26:09 435.120 FM
JAS-2 01 Aug 17:42:16 17:48:55 33° 68° (ENE) 17:55:10 435.800 - 435.900 CW/SSB, 435.910 FM
RS-15 01 Aug 18:09:14 18:12:08 11° 358° (N) 18:15:02 29.354 - 29.394 USB, Beacon 29.352 USB
AO-7 01 Aug 18:17:24 18:23:46 24° 265° (W) 18:30:11 29.400 - 29.500 MHz
OPAL 01 Aug 18:26:03 18:30:09 25° 294° (WNW) 18:34:17 ?
Hamsat 01 Aug 18:38:48 18:42:57 73° 259° (WSW) 18:47:09 145.90 MHz
